Content
SEND FEEDBACK

Daily
Averages
Monthly
Summary
United States of America

ACHANG BAY, GUAM


Home > North America > United States > Guam
Elevation: 30 feet     Latitude: 13 16N     Longitude: 144 45E

WEATHER
 
SELECT A DAY
Number of Records: 342,637;   Date Range: 1/1/95 - 9/20/14
 
SHARE

PRINT THIS DATA

[ ← Previous Day ]
WEATHER ALMANAC - JUNE 23, 2013
[ Next Day → ]
[ °C ]   °F
We're sorry. There is no daily almanac available for Achang Bay, Guam on June 23, 2013.
WEATHER BY HOUR - JUNE 23, 2013
[ °C ]   °F
Local TimeTemperatureDewpointHumidityBarometerVisibilityWind DirectionWind SpeedGust SpeedPrecipitationEventsConditions
12:29 AM80.6 °F77.0 °F89 %29.86 in10.0 miENE (70°)12.7 mphMostly Cloudy
12:41 AM80.6 °F77.0 °F89 %29.86 in10.0 miENE (60°)13.8 mphMostly Cloudy
12:55 AM80.6 °F76.1 °F86 %29.86 in10.0 miENE (70°)12.7 mphScattered Clouds
1:03 AM80.6 °F77.0 °F89 %29.85 in10.0 miEast (80°)13.8 mphLight Drizzle
1:15 AM80.6 °F77.0 °F89 %29.85 in10.0 miENE (70°)13.8 mphScattered Clouds
1:28 AM78.8 °F77.0 °F94 %29.85 in10.0 miEast (80°)11.5 mphMostly Cloudy
1:33 AM80.6 °F77.0 °F89 %29.84 in10.0 miENE (60°)12.7 mphMostly Cloudy
1:41 AM80.6 °F77.0 °F89 %29.84 in10.0 miENE (70°)16.1 mphScattered Clouds
1:43 AM80.6 °F77.0 °F89 %29.84 in10.0 miENE (70°)13.8 mphMostly Cloudy
1:46 AM80.6 °F75.2 °F84 %29.84 in10.0 miENE (70°)13.8 mphScattered Clouds
1:49 AM80.6 °F75.2 °F84 %29.84 in10.0 miENE (70°)12.7 mphMostly Cloudy
1:54 AM80.6 °F77.0 °F89 %29.84 in10.0 miENE (70°)13.8 mphScattered Clouds
1:55 AM79.9 °F76.1 °F88 %29.84 in10.0 miENE (70°)13.8 mph0.00 inScattered Clouds
2:31 AM80.6 °F75.2 °F84 %29.84 in10.0 miENE (70°)13.8 mphMostly Cloudy
2:33 AM80.6 °F75.2 °F84 %29.84 in10.0 miEast (80°)13.8 mphScattered Clouds
2:35 AM80.6 °F75.2 °F84 %29.84 in10.0 miEast (80°)12.7 mphMostly Cloudy
2:52 AM80.6 °F75.2 °F84 %29.84 in10.0 miEast (80°)16.1 mphScattered Clouds
2:55 AM80.4 °F75.9 °F86 %29.84 in10.0 miEast (80°)13.8 mphScattered Clouds
3:41 AM80.6 °F75.2 °F84 %29.84 in10.0 miENE (70°)13.8 mphMostly Cloudy
3:55 AM80.4 °F75.6 °F85 %29.84 in10.0 miENE (70°)13.8 mph23.0 mphMostly Cloudy
3:58 AM80.6 °F75.2 °F84 %29.84 in10.0 miEast (80°)13.8 mph23.0 mphMostly Cloudy
4:55 AM79.9 °F76.1 °F88 %29.85 in10.0 miEast (80°)11.5 mphPartly Cloudy
5:55 AM80.1 °F76.1 °F88 %29.85 in10.0 miENE (70°)10.4 mphScattered Clouds
6:09 AM80.6 °F75.2 °F84 %29.86 in10.0 miENE (60°)13.8 mphMostly Cloudy
6:10 AM80.6 °F75.2 °F84 %29.86 in10.0 miENE (60°)15.0 mphRainLight Rain
6:20 AM78.8 °F75.2 °F89 %29.86 in10.0 miEast (80°)15.0 mphRainLight Rain
6:21 AM78.8 °F75.2 °F89 %29.86 in10.0 miEast (80°)15.0 mphScattered Clouds
6:55 AM80.1 °F77.0 °F90 %29.88 in10.0 miENE (70°)11.5 mph0.00 inClear
7:13 AM80.6 °F77.0 °F89 %29.88 in10.0 miENE (70°)13.8 mphMostly Cloudy
7:17 AM80.6 °F77.0 °F89 %29.88 in10.0 miENE (70°)12.7 mphScattered Clouds
7:19 AM80.6 °F77.0 °F89 %29.88 in10.0 miENE (70°)13.8 mphMostly Cloudy
7:28 AM82.4 °F77.0 °F84 %29.88 in10.0 miENE (70°)13.8 mphScattered Clouds
7:55 AM82.6 °F76.1 °F81 %29.88 in10.0 miEast (80°)15.0 mphPartly Cloudy
8:55 AM85.3 °F76.5 °F75 %29.88 in10.0 miENE (70°)16.1 mphScattered Clouds
9:02 AM86.0 °F77.0 °F74 %29.89 in10.0 miENE (70°)17.3 mphMostly Cloudy
9:10 AM86.0 °F77.0 °F74 %29.88 in10.0 miENE (70°)16.1 mphScattered Clouds
9:55 AM86.5 °F75.9 °F70 %29.89 in10.0 miENE (70°)15.0 mphPartly Cloudy
10:13 AM86.0 °F77.0 °F74 %29.88 in10.0 miEast (90°)13.8 mph19.6 mphMostly Cloudy
10:44 AM87.8 °F77.0 °F70 %29.88 in10.0 miEast (80°)13.8 mph20.7 mphScattered Clouds
10:55 AM87.3 °F77.5 °F73 %29.87 in10.0 miEast (90°)15.0 mphScattered Clouds
11:32 AM87.8 °F77.0 °F70 %29.87 in10.0 miENE (70°)13.8 mphMostly Cloudy
11:39 AM87.8 °F77.0 °F70 %29.86 in10.0 miEast (80°)15.0 mph23.0 mphScattered Clouds
11:55 AM88.5 °F77.9 °F71 %29.86 in10.0 miENE (70°)17.3 mphScattered Clouds
12:17 PM87.8 °F77.0 °F70 %29.86 in10.0 miENE (70°)18.4 mph21.9 mphMostly Cloudy
12:55 PM86.4 °F77.5 °F75 %29.85 in10.0 miENE (70°)16.1 mphMostly Cloudy
12:59 PM87.8 °F77.0 °F70 %29.85 in10.0 miENE (70°)15.0 mph20.7 mphMostly Cloudy
1:00 PM87.8 °F77.0 °F70 %29.85 in10.0 miENE (60°)16.1 mph21.9 mphMostly Cloudy
1:02 PM87.8 °F77.0 °F70 %29.85 in10.0 miENE (60°)16.1 mph21.9 mphMostly Cloudy
1:03 PM87.8 °F77.0 °F70 %29.85 in10.0 miENE (60°)16.1 mph21.9 mphMostly Cloudy
1:11 PM87.8 °F77.0 °F70 %29.84 in10.0 miEast (90°)13.8 mph19.6 mphMostly Cloudy
1:16 PM87.8 °F77.0 °F70 %29.85 in10.0 miEast (90°)13.8 mph19.6 mphMostly Cloudy
1:35 PM87.8 °F77.0 °F70 %29.84 in10.0 miENE (70°)17.3 mphMostly Cloudy
1:37 PM87.8 °F77.0 °F70 %29.84 in10.0 miENE (70°)18.4 mphMostly Cloudy
1:43 PM86.0 °F77.0 °F74 %29.84 in10.0 miENE (60°)13.8 mphScattered Clouds
1:55 PM87.3 °F77.9 °F74 %29.84 in10.0 miEast (90°)13.8 mphPartly Cloudy
2:16 PM86.0 °F77.0 °F74 %29.83 in10.0 miENE (70°)16.1 mphMostly Cloudy
2:25 PM87.8 °F77.0 °F70 %29.83 in10.0 miEast (90°)15.0 mphScattered Clouds
2:49 PM87.8 °F77.0 °F70 %29.82 in10.0 miENE (70°)18.4 mphMostly Cloudy
2:55 PM86.7 °F77.4 °F74 %29.81 in10.0 miEast (90°)13.8 mphMostly Cloudy
3:02 PM86.0 °F77.0 °F74 %29.81 in10.0 miEast (90°)16.1 mphScattered Clouds
3:17 PM86.0 °F77.0 °F74 %29.81 in10.0 miEast (90°)16.1 mphMostly Cloudy
3:20 PM86.0 °F77.0 °F74 %29.81 in10.0 miEast (90°)15.0 mphScattered Clouds
3:28 PM86.0 °F77.0 °F74 %29.81 in10.0 miEast (80°)16.1 mphMostly Cloudy
3:30 PM86.0 °F77.0 °F74 %29.81 in10.0 miEast (90°)15.0 mphScattered Clouds
3:44 PM87.8 °F77.0 °F70 %29.81 in10.0 miEast (100°)12.7 mphMostly Cloudy
3:46 PM86.0 °F77.0 °F74 %29.81 in10.0 miEast (90°)12.7 mphScattered Clouds
3:55 PM86.2 °F77.5 °F75 %29.81 in10.0 miEast (80°)16.1 mph20.7 mphScattered Clouds
4:00 PM86.0 °F77.0 °F74 %29.81 in10.0 miEast (90°)13.8 mph20.7 mphMostly Cloudy
4:15 PM86.0 °F77.0 °F74 %29.81 in10.0 miEast (90°)13.8 mphScattered Clouds
4:16 PM86.0 °F77.0 °F74 %29.81 in10.0 miEast (90°)13.8 mphMostly Cloudy
4:25 PM86.0 °F77.0 °F74 %29.81 in10.0 miEast (90°)15.0 mphScattered Clouds
4:27 PM86.0 °F77.0 °F74 %29.81 in10.0 miEast (90°)12.7 mphMostly Cloudy
4:31 PM86.0 °F77.0 °F74 %29.81 in10.0 miEast (90°)15.0 mphScattered Clouds
4:33 PM86.0 °F77.0 °F74 %29.81 in10.0 miEast (90°)12.7 mphMostly Cloudy
4:35 PM84.2 °F77.0 °F79 %29.81 in10.0 miEast (90°)12.7 mphScattered Clouds
4:55 PM85.5 °F77.4 °F77 %29.81 in10.0 miEast (90°)15.0 mphScattered Clouds
5:55 PM83.8 °F75.2 °F75 %29.82 in10.0 miEast (90°)12.7 mphClear
6:29 PM82.4 °F77.0 °F84 %29.84 in10.0 miEast (100°)12.7 mphMostly Cloudy
6:37 PM82.4 °F75.2 °F79 %29.84 in10.0 miEast (90°)15.0 mphMostly Cloudy
6:55 PM82.0 °F75.4 °F80 %29.85 in10.0 miEast (90°)13.8 mphPartly Cloudy
7:51 PM82.4 °F77.0 °F84 %29.86 in10.0 miEast (100°)10.4 mphMostly Cloudy
7:55 PM81.7 °F76.6 °F85 %29.86 in10.0 miEast (90°)12.7 mphMostly Cloudy
8:05 PM82.4 °F77.0 °F84 %29.87 in10.0 miEast (90°)13.8 mphScattered Clouds
8:08 PM80.6 °F77.0 °F89 %29.87 in10.0 miEast (90°)12.7 mphMostly Cloudy
8:10 PM80.6 °F77.0 °F89 %29.87 in10.0 miEast (90°)12.7 mphScattered Clouds
8:11 PM80.6 °F77.0 °F89 %29.87 in10.0 miEast (90°)12.7 mphMostly Cloudy
8:15 PM80.6 °F77.0 °F89 %29.87 in10.0 miEast (90°)11.5 mphScattered Clouds
8:53 PM82.4 °F77.0 °F84 %29.88 in10.0 miEast (80°)12.7 mphMostly Cloudy
8:55 PM81.7 °F76.5 °F84 %29.88 in10.0 miEast (80°)12.7 mphMostly Cloudy
9:07 PM82.4 °F77.0 °F84 %29.89 in10.0 miEast (90°)11.5 mphScattered Clouds
9:08 PM82.4 °F77.0 °F84 %29.89 in10.0 miEast (90°)12.7 mphMostly Cloudy
9:15 PM82.4 °F75.2 °F79 %29.89 in10.0 miEast (90°)12.7 mphMostly Cloudy
9:25 PM82.4 °F77.0 °F84 %29.89 in10.0 miEast (90°)11.5 mphMostly Cloudy
9:32 PM82.4 °F77.0 °F84 %29.89 in10.0 miEast (80°)9.2 mphScattered Clouds
9:37 PM82.4 °F77.0 °F84 %29.89 in10.0 miEast (90°)10.4 mphMostly Cloudy
9:43 PM80.6 °F77.0 °F89 %29.89 in10.0 miEast (80°)13.8 mphScattered Clouds
9:55 PM81.3 °F76.3 °F85 %29.90 in10.0 miEast (90°)11.5 mphScattered Clouds
10:01 PM80.6 °F77.0 °F89 %29.90 in10.0 miENE (70°)9.2 mphMostly Cloudy
10:02 PM80.6 °F77.0 °F89 %29.90 in10.0 miENE (70°)10.4 mphScattered Clouds
10:06 PM80.6 °F77.0 °F89 %29.90 in5.0 miEast (90°)17.3 mph26.5 mphRainLight Rain
10:08 PM80.6 °F77.0 °F89 %29.90 in3.0 miEast (90°)13.8 mph26.5 mphRainRain
10:09 PM80.6 °F77.0 °F89 %29.90 in2.5 miEast (80°)16.1 mph26.5 mphRainRain
10:11 PM80.6 °F75.2 °F84 %29.90 in2.0 miENE (70°)9.2 mph26.5 mphRainHeavy Rain
10:16 PM78.8 °F75.2 °F89 %29.91 in2.5 miEast (90°)9.2 mphRainLight Rain
10:17 PM78.8 °F77.0 °F94 %29.91 in3.0 miEast (90°)9.2 mphRainLight Rain
10:22 PM78.8 °F77.0 °F94 %29.91 in10.0 miEast (90°)6.9 mphScattered Clouds
10:23 PM78.8 °F77.0 °F94 %29.91 in10.0 miEast (90°)6.9 mphMostly Cloudy
10:38 PM80.6 °F77.0 °F89 %29.91 in10.0 miEast (80°)11.5 mphScattered Clouds
10:51 PM80.6 °F77.0 °F89 %29.91 in10.0 miEast (80°)10.4 mphMostly Cloudy
10:53 PM80.6 °F77.0 °F89 %29.90 in10.0 miEast (80°)11.5 mphMostly Cloudy
10:55 PM80.1 °F76.8 °F90 %29.91 in10.0 miEast (80°)11.5 mph0.10 inMostly Cloudy
10:56 PM80.6 °F77.0 °F89 %29.91 in10.0 miEast (90°)11.5 mphMostly Cloudy
11:13 PM80.6 °F77.0 °F89 %29.90 in10.0 miENE (70°)15.0 mphMostly Cloudy
11:15 PM80.6 °F77.0 °F89 %29.90 in10.0 miEast (80°)13.8 mphMostly Cloudy
11:19 PM80.6 °F77.0 °F89 %29.90 in10.0 miEast (90°)15.0 mphMostly Cloudy
11:23 PM80.6 °F77.0 °F89 %29.90 in10.0 miEast (90°)11.5 mphMostly Cloudy
11:30 PM80.6 °F77.0 °F89 %29.90 in10.0 miEast (100°)11.5 mphLight Drizzle
11:45 PM78.8 °F75.2 °F89 %29.89 in10.0 miEast (100°)10.4 mphMostly Cloudy
11:54 PM78.8 °F77.0 °F94 %29.89 in10.0 miEast (100°)10.4 mphScattered Clouds
11:55 PM79.2 °F76.8 °F92 %29.89 in10.0 miEast (90°)10.4 mph0.01 inScattered Clouds
Hourly data recorded from PGUA, located miles away from Achang Bay, Guam







STORIES FROM OUR PARTNERS